CDT,Max TemperatureF,Mean TemperatureF,Min TemperatureF,Max Dew PointF,MeanDew PointF,Min DewpointF,Max Humidity, Mean Humidity, Min Humidity, Max Sea Level PressureIn, Mean Sea Level PressureIn, Min Sea Level PressureIn, Max VisibilityMiles, Mean VisibilityMiles, Min VisibilityMiles, Max Wind SpeedMPH, Mean Wind SpeedMPH, Max Gust SpeedMPH,PrecipitationIn, CloudCover, Events, WindDirDegrees
2013-5-1,82,68,55,54,50,43,72,49,26,30.17,30.05,29.92,10,10,10,23,13,29,0.00,0,,201
2013-5-2,55,47,39,43,38,34,87,71,58,30.28,30.22,30.15,10,10,3,26,18,30,0.26,5,Thunderstorm,9
2013-5-3,51,43,35,46,38,30,93,85,81,30.21,30.03,29.91,10,8,3,22,15,26,1.28,8,Thunderstorm,31
2013-5-4,68,59,50,55,51,46,88,79,64,30.06,29.97,29.91,10,8,3,20,12,21,0.14,3,,84
2013-5-5,73,60,46,54,48,43,94,69,38,30.07,30.03,29.98,10,7,0,15,7,21,0.00,1,,40
2013-5-6,73,60,48,50,46,43,87,60,36,30.09,30.04,30.01,10,10,10,15,8,17,0.00,3,,33
2013-5-7,77,64,50,48,43,37,82,49,27,30.08,30.04,30.00,10,10,3,10,3,,0.00,1,,89
2013-5-8,78,63,48,54,47,43,82,54,29,30.06,30.02,29.98,10,10,1,12,5,,0.00,1,,140
2013-5-9,69,63,57,59,56,54,88,79,60,29.99,29.91,29.81,10,9,4,16,7,21,0.21,4,,156
2013-5-10,60,53,44,55,44,39,87,80,67,30.02,29.96,29.81,10,10,5,20,13,23,0.07,7,,32
2013-5-11,57,49,39,46,34,25,93,59,33,30.14,30.02,29.92,10,8,0,32,14,41,0.00,1,,289
2013-5-12,57,45,33,27,26,25,75,49,29,30.21,30.16,30.12,10,10,10,23,11,28,0.00,0,,311
2013-5-13,69,51,33,41,31,25,81,48,24,30.21,30.11,29.95,10,10,8,15,5,22,0.00,0,,227
2013-5-14,89,71,53,57,50,37,67,46,24,29.94,29.77,29.65,10,10,10,23,14,29,0.00,0,,212
2013-5-15,80,70,60,55,48,39,59,44,24,29.89,29.84,29.67,10,10,9,24,14,31,0.00,0,,316
2013-5-16,82,68,53,50,47,43,77,47,26,29.97,29.92,29.88,10,10,6,13,6,18,0.00,1,,150
2013-5-17,78,69,60,61,54,48,77,60,47,30.02,29.98,29.92,10,10,9,20,8,22,0.00,1,,120
2013-5-18,80,68,57,63,57,52,82,66,45,30.04,29.99,29.91,10,8,4,15,9,18,0.00,1,,126
2013-5-19,87,74,62,72,61,55,88,67,48,29.97,29.83,29.66,10,8,3,28,13,37,0.24,1,Thunderstorm,145
2013-5-20,80,71,62,63,58,55,82,66,45,29.78,29.72,29.57,10,10,7,28,14,44,0.14,1,Thunderstorm,190
2013-5-21,77,68,60,59,55,52,88,64,47,29.71,29.69,29.64,10,10,10,22,14,29,0.00,3,,224
2013-5-22,69,62,55,55,52,50,88,73,53,29.80,29.71,29.65,10,10,8,22,8,25,0.00,4,,252
2013-5-23,64,57,48,54,46,37,88,67,42,30.30,30.06,29.80,10,9,3,22,13,25,0.04,5,,10
2013-5-24,68,52,37,39,35,30,81,53,28,30.48,30.38,30.30,10,10,9,13,7,16,0.00,0,,113
2013-5-25,57,52,46,46,42,37,87,72,48,30.42,30.33,30.28,10,10,7,18,11,23,0.37,6,Thunderstorm,119
2013-5-26,57,52,46,52,46,39,88,78,62,30.29,30.20,30.07,10,9,3,21,12,29,0.70,4,Thunderstorm,105
2013-5-27,69,62,55,63,57,52,94,83,73,30.07,29.93,29.82,10,5,2,17,13,22,0.02,0,,105
2013-5-28,78,69,60,70,63,55,94,82,73,29.85,29.76,29.68,10,9,2,21,10,26,0.17,2,Thunderstorm,198
2013-5-29,84,72,60,70,62,55,83,70,54,29.93,29.86,29.74,10,10,10,22,11,26,0.05,1,Thunderstorm,176
2013-5-30,82,75,68,68,64,61,78,71,58,29.88,29.82,29.75,10,10,5,29,14,37,0.17,0,Thunderstorm,171
2013-5-31,,,,,,,,,,,,,,,,,,,,,,